Theta_e
329 327 326 326 327 326 326 325 326 323 322 321 321 320 321 321 322 321 323 324 323 323 323 323 323 325 326 327 328 329 329 329 329 327 327 329 327 327 332 331 332 332 333 332 330 324 320 319 322 328 330 331 332 334 334 333 333 334 335 337 338 339 340
327 326 325 325 324 325 324 325 325 323 321 321 320 320 320 320 320 320 321 321 322 322 322 323 323 324 325 325 324 324 324 324 324 327 327 326 327 326 327 328 329 329 329 330 330 328 322 320 319 321 323 329 331 332 333 334 335 335 334 334 334 338 340
324 323 323 321 322 324 323 323 323 320 320 321 320 318 319 318 318 319 318 318 318 318 318 319 320 321 321 322 323 323 323 323 323 323 322 322 323 324 326 326 325 326 327 326 326 325 325 324 319 320 323 323 322 326 331 331 333 334 336 335 336 337 337
321 321 320 320 321 321 321 320 320 319 319 318 318 317 317 317 318 317 317 317 318 318 317 317 318 317 318 319 321 322 321 320 319 319 320 322 322 322 321 322 323 324 324 324 323 324 324 322 321 321 323 323 322 323 328 330 331 333 334 334 334 336 337
320 320 319 318 319 319 320 319 319 319 318 317 316 315 316 316 317 317 317 317 316 316 316 316 317 316 317 318 318 317 317 318 317 315 316 317 317 318 319 320 320 322 323 323 325 326 324 323 322 321 321 323 324 325 327 331 333 332 333 335 336 336 337
318 318 317 317 318 318 318 318 317 316 316 315 314 314 315 316 316 315 315 314 314 315 315 315 315 315 315 315 315 314 314 314 313 313 313 315 315 315 315 318 320 320 319 321 323 323 323 324 323 320 322 324 322 323 326 327 327 329 331 332 334 335 337
317 317 316 316 317 317 317 316 315 315 314 314 314 314 314 314 314 314 314 314 314 314 314 314 314 314 314 313 313 311 311 312 311 312 312 313 314 315 316 316 317 317 319 320 320 320 320 319 318 319 319 321 323 322 325 324 327 325 327 331 333 334 336
315 315 315 316 316 315 315 315 315 314 313 314 313 314 313 313 313 313 313 313 313 313 313 313 313 314 314 313 312 311 310 310 311 311 311 312 312 312 314 314 314 315 316 317 318 318 319 319 318 318 318 316 317 320 321 323 325 325 326 329 332 332 333
315 315 314 314 314 315 315 314 313 313 313 313 313 313 312 312 312 311 311 311 311 312 312 312 312 312 313 312 311 311 310 311 311 311 311 311 311 312 312 313 313 313 315 316 315 315 315 317 317 317 317 315 310 310 316 318 321 322 326 326 329 333 334
314 313 312 313 313 313 314 313 312 312 313 313 312 312 311 311 311 310 310 310 310 310 311 311 310 311 312 312 312 311 311 312 312 311 311 310 311 311 311 311 311 312 313 314 314 313 314 315 315 315 314 312 311 309 308 310 315 318 323 326 323 327 332
313 313 312 312 313 313 312 312 313 312 311 311 311 311 311 310 310 310 309 309 309 309 309 310 310 310 311 310 311 310 310 311 311 311 311 311 311 311 311 311 312 311 312 312 312 313 313 312 312 312 312 313 313 309 309 306 308 316 320 324 327 326 330
312 312 311 311 312 311 311 311 311 310 311 311 310 310 309 309 309 308 309 308 308 307 308 308 309 309 309 308 308 308 309 310 309 309 311 311 310 310 310 310 311 311 311 311 312 312 313 312 311 310 310 312 312 311 309 308 304 310 316 317 322 325 329
310 310 311 311 310 310 309 310 310 310 310 310 309 309 309 308 308 307 307 307 307 307 306 307 308 307 308 307 307 307 307 308 307 307 309 309 309 309 309 308 309 309 309 309 309 310 310 311 310 309 309 309 309 310 310 307 304 305 312 315 318 322 323
310 310 310 310 310 310 310 310 309 309 309 309 309 308 308 308 307 307 306 306 306 306 306 306 306 307 306 306 306 306 306 306 305 306 307 307 308 308 308 307 307 307 308 308 307 308 308 308 308 308 309 308 307 308 307 305 302 303 308 314 315 317 323
309 310 310 309 309 308 308 308 309 309 308 308 308 307 307 308 307 307 306 305 305 305 305 305 306 306 305 305 305 306 305 305 305 305 306 305 306 307 307 306 306 306 307 307 307 306 307 306 306 305 306 306 306 306 307 303 302 303 303 308 310 314 316
308 308 308 308 308 307 307 308 308 308 307 307 308 307 307 307 307 306 306 305 305 304 304 304 305 305 304 304 304 304 304 304 304 304 304 304 305 306 305 305 304 304 306 305 305 306 306 305 305 304 304 304 304 305 306 305 303 301 301 303 308 310 313
308 308 307 307 308 308 308 307 307 307 307 307 306 307 307 306 306 306 305 305 304 303 304 304 304 304 304 304 304 303 303 304 304 304 303 304 304 304 304 303 303 303 304 303 303 303 304 303 302 302 303 303 303 303 305 305 305 302 302 301 306 307 311
307 306 306 306 306 306 306 306 306 305 306 306 306 306 307 306 305 305 305 304 304 303 303 303 302 303 303 304 304 304 303 303 304 304 304 304 303 303 303 303 303 302 302 301 301 301 301 301 300 300 300 301 301 301 302 303 303 304 303 302 304 308 310
305 305 305 305 305 305 305 305 305 305 305 305 306 305 306 306 305 305 304 304 304 303 302 302 302 302 302 303 304 304 304 304 303 304 303 303 303 303 303 302 302 302 301 300 300 300 299 298 298 298 298 299 299 300 300 301 302 303 303 303 304 304 308
304 304 304 305 305 304 304 305 304 304 305 305 305 305 305 305 305 305 304 304 303 303 302 301 301 301 301 301 302 303 304 303 303 304 304 303 303 303 302 302 302 302 301 300 299 298 297 297 297 297 298 298 298 299 298 299 300 301 302 303 304 306 306
304 304 304 304 304 305 304 304 304 305 305 304 304 304 304 304 305 305 305 304 303 302 301 300 300 300 300 300 301 303 304 303 304 304 304 303 303 302 302 302 302 301 301 300 299 298 298 296 296 296 297 297 297 297 298 299 299 299 300 301 302 302 305
304 304 304 304 304 304 304 304 304 304 304 304 305 304 304 305 304 304 304 303 302 301 301 300 300 298 299 298 301 303 303 303 303 302 302 302 302 302 302 302 301 301 300 300 298 298 297 296 296 295 296 297 297 296 296 297 298 298 299 300 300 302 303
303 303 303 303 303 304 304 304 304 304 303 303 304 304 304 305 304 304 303 302 302 301 300 300 296 293 294 297 300 302 304 303 303 302 302 301 301 301 301 301 301 301 299 298 298 296 295 295 296 296 296 297 296 295 295 295 296 297 298 297 298 299 299
302 302 302 303 303 302 303 304 304 303 303 303 304 304 304 304 304 303 303 302 301 301 300 298 292 292 292 292 297 302 302 302 302 302 301 300 299 300 300 300 300 300 299 298 298 296 295 294 294 294 294 295 296 296 296 295 296 297 297 297 298 298 298
301 301 302 301 302 302 303 302 302 303 303 303 304 304 304 303 303 304 303 303 302 301 301 294 291 292 292 291 293 299 303 302 302 301 300 300 299 299 298 298 298 299 299 298 298 298 296 295 294 293 293 294 294 294 294 297 296 295 296 295 296 297 298
301 301 301 301 302 302 302 302 302 302 302 303 304 303 303 303 303 303 303 302 301 300 300 293 291 291 292 291 291 295 302 301 301 300 300 300 299 298 298 297 297 297 297 299 299 297 296 296 295 294 295 296 296 296 294 293 294 298 298 297 296 296 298
300 300 301 301 301 301 301 301 302 303 303 303 303 302 303 302 302 303 302 302 302 301 299 294 291 291 291 290 291 294 302 301 301 300 299 299 299 298 298 297 296 296 297 298 298 296 295 295 295 296 297 298 298 298 296 295 295 295 297 298 297 296 298
300 300 300 301 301 301 301 302 301 302 302 302 301 301 301 302 302 302 302 302 302 300 298 291 291 290 291 291 290 295 302 301 300 300 300 300 300 299 298 298 297 297 297 297 297 294 294 294 294 295 296 296 296 297 298 298 299 299 298 297 296 296 297
300 300 300 300 300 300 301 301 301 301 301 301 302 301 301 302 301 301 301 302 301 300 298 291 291 291 290 291 291 301 300 300 299 299 300 300 300 299 298 298 297 297 297 297 295 291 291 293 294 294 294 295 296 297 298 298 295 295 296 296 296 296 297
300 300 300 300 300 300 300 301 301 302 301 301 300 300 301 301 301 301 300 301 301 301 300 294 291 291 291 290 294 300 299 299 299 299 299 299 299 299 299 298 297 297 297 297 293 289 290 291 295 294 293 293 294 295 296 298 295 293 293 293 293 293 293
300 300 300 299 300 300 301 301 301 302 300 300 299 300 301 301 301 301 300 299 300 300 300 296 291 291 291 290 293 299 298 298 298 298 299 299 299 299 299 299 298 296 296 295 291 289 289 293 294 293 293 292 291 292 294 295 295 295 294 293 294 294 294
301 300 300 300 301 300 300 301 301 302 301 301 300 300 300 300 300 301 301 301 298 299 300 298 292 291 290 291 294 299 298 297 297 298 298 298 299 298 298 298 297 295 295 293 289 290 289 292 294 294 292 291 290 290 291 292 292 292 293 294 295 296 296
301 301 300 301 301 300 301 301 302 301 301 300 300 300 300 300 300 300 301 301 300 300 299 300 297 291 291 291 291 296 298 297 296 297 297 296 296 297 297 298 297 292 290 290 289 289 289 290 293 294 293 291 289 288 291 292 293 292 292 293 293 294 295
302 302 301 301 301 301 301 301 302 301 300 301 301 301 301 301 300 300 300 300 300 300 299 298 298 291 291 291 290 292 298 297 296 297 297 296 296 296 296 296 298 294 291 290 290 289 290 290 291 295 293 291 291 291 291 292 292 292 292 293 293 293 293
303 303 302 302 301 301 301 302 302 301 301 301 301 301 301 300 300 300 300 300 300 300 300 297 298 294 291 291 291 290 296 298 296 297 296 296 296 296 296 296 297 294 291 290 289 290 290 290 290 295 293 289 289 289 292 293 293 292 292 292 291 291 292
302 303 303 302 302 301 301 301 301 302 302 301 300 300 300 300 300 299 299 299 300 300 301 300 294 297 293 291 291 291 290 294 291 297 297 296 296 296 297 297 297 294 290 290 290 290 290 290 292 293 289 289 290 290 292 293 292 291 291 291 290 290 290
303 303 303 302 302 302 301 301 300 301 301 300 299 298 298 299 299 298 297 298 299 299 300 300 295 292 295 292 291 290 290 290 290 297 298 297 297 297 296 297 296 291 290 290 290 290 290 291 294 290 289 289 290 291 293 292 292 291 290 290 289 290 290
Wind_Speed
4 5 5 5 4 4 4 4 6 6 7 8 7 7 7 7 6 6 6 6 6 6 5 5 5 5 6 7 8 8 7 7 8 8 10 9 9 9 9 10 10 10 10 11 12 10 12 12 11 9 10 10 8 9 10 11 12 12 11 11 11 11 10
4 4 4 4 4 4 4 4 5 7 7 8 8 7 7 7 7 6 6 6 6 6 5 5 5 7 7 8 8 7 7 7 7 8 9 8 9 9 10 10 10 9 10 10 11 9 10 11 12 13 12 9 10 11 10 10 10 10 11 12 12 12 10
3 3 3 3 3 2 4 5 6 6 6 6 7 8 8 8 8 8 7 8 7 6 6 6 7 7 7 7 8 8 8 8 7 7 9 9 8 9 10 10 10 10 10 9 9 10 11 11 13 13 12 14 13 10 10 10 11 10 10 11 12 12 11
4 4 3 3 2 3 3 5 6 6 6 6 7 7 8 8 7 8 7 6 6 6 6 7 6 7 7 7 6 8 8 9 8 9 9 9 8 9 9 8 9 10 10 11 11 11 11 12 12 13 14 13 14 14 11 11 10 11 12 12 12 11 11
3 2 2 3 3 3 4 5 4 5 6 6 6 6 7 8 6 7 7 7 7 7 6 6 6 7 7 6 7 7 7 8 8 8 7 8 10 8 9 9 9 10 11 10 11 11 11 12 12 13 13 14 14 13 12 12 13 12 12 12 11 11 12
5 5 5 5 4 4 4 5 5 6 5 6 6 6 7 7 6 6 7 6 6 6 7 7 6 7 7 6 8 8 8 9 8 9 8 9 9 9 8 9 8 8 9 9 10 11 11 12 12 13 13 13 14 14 13 13 11 11 10 11 11 10 11
7 6 6 6 5 5 5 6 5 6 6 6 7 7 7 6 6 6 6 6 7 7 7 7 7 7 8 6 8 9 9 8 9 10 8 10 9 10 9 8 9 9 9 9 10 10 10 11 11 12 14 13 14 15 14 13 13 13 11 9 8 9 10
7 6 6 6 6 6 6 6 6 6 6 6 7 6 6 6 6 7 7 8 8 8 8 8 7 6 7 6 7 8 8 8 9 9 8 10 9 11 10 9 9 8 9 9 9 10 10 10 11 12 13 15 14 13 14 13 14 15 14 11 10 10 10
7 7 6 6 6 6 6 6 6 6 6 6 6 6 7 7 7 8 8 9 9 8 8 9 9 7 7 6 6 7 8 7 8 10 9 9 10 11 10 10 9 9 9 9 9 9 10 10 10 10 11 12 12 14 13 14 13 14 16 13 12 10 9
9 8 7 7 7 7 7 6 6 7 7 6 5 5 6 7 7 8 8 8 9 9 9 9 9 8 7 7 7 8 8 8 8 9 9 9 9 9 9 10 9 9 9 10 9 9 9 9 9 9 9 9 10 12 12 12 13 14 14 14 13 13 11
8 8 7 7 7 7 7 7 7 7 7 5 5 5 6 7 7 8 8 9 9 10 10 9 9 9 8 7 8 8 9 9 8 8 8 9 9 9 9 10 10 9 9 10 10 9 9 9 9 10 9 10 9 10 10 12 13 12 14 15 14 13 15
8 8 7 8 7 8 8 8 8 7 6 6 6 6 6 7 7 8 8 9 9 10 10 10 9 9 9 9 9 8 9 9 8 8 8 8 8 9 10 11 10 9 10 10 10 10 10 10 9 9 9 10 10 9 11 10 13 9 9 13 14 15 14
9 9 8 8 8 8 7 7 7 6 6 6 6 6 7 7 8 9 9 9 10 10 10 10 10 10 10 10 9 9 10 10 10 9 9 9 8 9 10 10 10 10 10 10 10 10 10 10 10 11 10 10 10 10 10 10 11 16 12 11 14 15 16
10 9 9 8 8 8 7 7 6 6 6 7 6 7 7 8 8 8 9 10 10 10 10 10 10 9 10 10 9 9 10 11 10 9 9 10 9 9 10 11 11 11 11 11 10 11 11 11 11 11 11 11 11 10 10 11 12 15 14 10 12 14 15
8 8 8 8 8 8 7 7 6 6 7 7 7 7 8 7 7 8 8 10 10 11 11 11 10 10 10 10 10 8 9 10 10 10 9 10 11 9 10 11 12 12 12 12 12 12 11 12 12 12 12 12 12 12 11 11 12 12 16 15 13 14 15
8 8 8 7 8 7 7 7 6 7 7 7 7 7 7 8 8 9 9 9 11 11 12 11 10 11 10 11 11 10 10 10 10 10 11 11 11 10 11 11 12 12 11 13 12 12 12 12 12 13 13 13 13 13 13 12 12 14 16 16 14 15 14
8 7 8 7 8 7 6 6 6 7 7 7 7 7 8 8 8 9 9 10 11 12 12 12 12 11 11 11 11 11 11 11 11 11 11 11 11 11 12 12 12 12 13 13 13 12 12 13 13 12 14 13 13 13 12 12 13 14 15 17 15 14 14
8 8 8 7 7 7 7 6 6 7 7 8 8 7 7 8 8 9 9 10 11 12 12 13 13 12 11 11 11 10 11 10 10 10 10 10 11 11 12 12 13 13 14 13 13 13 13 16 14 13 13 14 13 13 13 13 14 14 15 17 16 14 14
8 8 7 7 7 7 7 7 7 7 7 8 7 7 8 7 7 8 9 10 11 12 12 12 13 13 12 12 10 10 10 10 10 10 10 10 11 11 11 13 13 14 14 15 13 14 14 16 14 13 15 14 14 15 16 16 14 14 15 15 16 16 14
7 7 7 7 6 7 7 7 7 7 7 7 7 7 7 8 7 8 9 9 10 11 12 13 13 13 13 13 12 10 10 10 10 8 10 10 10 11 12 13 14 14 14 14 14 14 15 16 14 17 16 15 15 15 16 16 15 15 14 15 14 13 14
7 7 7 7 7 7 7 7 7 7 7 7 8 8 8 8 7 7 8 9 10 10 12 12 13 13 13 13 12 10 9 10 10 10 10 10 11 12 13 14 13 13 14 13 14 15 16 16 16 17 16 16 16 16 16 15 14 14 14 14 13 14 13
7 7 7 7 7 7 7 7 7 7 7 7 6 7 8 8 8 8 8 9 10 10 11 11 10 11 12 14 12 10 10 10 10 10 10 11 11 12 13 13 12 13 14 16 15 13 14 15 15 17 17 17 18 17 15 14 14 14 14 14 14 13 13
7 7 7 8 8 7 7 7 7 7 8 7 7 7 8 8 8 8 8 9 10 10 11 9 12 16 14 13 12 9 8 10 10 10 10 11 12 13 14 13 13 18 16 16 16 14 14 17 19 17 18 18 18 17 15 15 15 14 14 15 14 14 15
7 8 8 8 7 8 8 7 7 7 8 7 7 7 8 8 8 7 8 9 10 10 10 9 14 14 16 18 13 10 9 10 10 10 11 13 13 13 14 14 14 15 16 18 18 17 18 20 19 20 21 20 19 18 17 17 16 15 15 15 14 15 15
8 8 8 8 8 8 7 7 7 7 7 8 7 7 8 8 8 7 7 8 9 10 9 12 14 16 17 20 16 12 8 9 10 10 12 13 12 13 14 14 14 13 14 18 18 19 22 22 21 21 21 21 20 19 15 13 16 16 16 16 16 16 16
9 8 8 8 7 7 8 8 8 7 8 7 7 8 9 8 8 8 7 8 9 10 11 15 15 17 18 20 19 16 8 10 10 11 13 13 13 13 13 14 14 13 14 22 18 19 21 22 23 23 21 20 19 17 17 16 16 15 16 17 18 18 16
9 9 8 8 8 8 8 8 7 6 6 7 7 8 9 9 8 8 8 8 8 10 12 13 15 17 18 20 19 17 9 10 11 11 12 12 12 13 13 14 14 15 16 17 17 20 21 21 21 20 19 18 17 19 18 18 17 17 15 14 15 16 17
9 9 8 8 8 8 8 7 7 7 6 7 7 7 7 8 8 8 8 8 8 10 10 14 15 17 18 19 21 16 10 9 11 11 12 13 12 13 14 14 15 16 17 17 16 20 22 21 20 19 19 19 19 19 19 18 16 15 15 14 15 17 17
8 8 8 8 8 8 7 7 7 7 6 6 7 7 7 7 8 9 8 8 8 9 10 13 15 16 18 19 22 9 11 10 11 12 12 13 12 12 13 14 16 17 17 18 19 23 20 20 20 19 19 19 19 19 18 17 16 15 17 17 16 17 17
8 8 8 8 8 8 7 7 6 6 7 7 7 7 7 7 7 8 9 9 8 8 9 12 15 16 17 20 16 10 10 10 10 12 12 13 12 12 13 14 16 16 16 16 20 22 22 23 19 19 19 20 19 17 17 17 18 19 19 21 22 23 24
8 8 8 8 7 7 6 6 6 5 7 7 7 6 6 6 7 7 8 9 8 7 8 11 14 14 16 18 17 11 11 10 11 12 12 12 11 12 14 12 15 16 16 17 21 21 21 20 19 19 19 21 21 20 19 19 17 16 19 20 20 20 19
8 8 8 7 6 7 6 6 5 5 5 6 6 6 6 6 6 6 6 7 8 8 8 10 13 13 15 16 15 11 11 11 12 12 11 12 12 12 13 12 12 14 16 18 20 20 21 19 18 18 20 19 19 21 20 22 20 20 19 18 17 17 16
7 7 8 7 6 6 5 5 5 5 5 6 6 5 5 6 6 6 6 6 6 8 8 9 11 11 13 13 15 13 10 11 12 11 11 11 11 12 12 13 13 15 18 20 20 20 19 19 16 17 18 18 18 18 20 20 20 19 18 17 16 16 16
7 7 7 6 6 6 5 5 5 5 6 5 5 5 5 4 5 5 5 6 6 6 7 9 9 10 12 12 12 12 10 12 11 11 11 12 11 11 12 13 13 15 19 20 20 20 18 18 18 17 18 16 16 18 18 14 19 24 17 17 16 14 13
6 6 6 6 6 6 5 4 4 4 5 5 5 5 4 4 4 4 4 4 6 6 5 7 10 9 10 12 11 10 9 10 11 11 11 11 12 11 12 13 12 16 20 20 20 19 17 16 18 16 16 20 22 22 17 15 13 13 14 14 16 14 13
6 5 5 5 5 5 4 4 4 3 3 3 4 4 5 4 4 5 5 5 5 6 5 5 6 9 10 10 10 11 10 10 13 11 10 12 12 11 12 13 13 18 20 20 20 19 16 14 16 16 19 21 21 22 18 14 13 13 12 15 15 12 11
6 6 6 5 4 4 4 3 3 3 3 3 3 4 4 4 4 5 6 5 5 6 6 7 7 7 8 8 10 10 10 10 11 9 11 10 11 11 12 13 14 18 18 18 19 17 10 13 12 17 17 19 20 18 16 17 16 16 14 14 12 11 12
Wind_Direction
75 97 88 82 76 73 66 67 87 66 47 46 49 43 39 36 31 27 26 26 23 18 2 13 4 358 345 332 333 327 325 320 317 307 306 305 307 306 317 310 302 297 294 285 282 289 294 298 300 291 288 293 284 273 275 277 277 271 269 262 258 248 239
86 92 84 69 71 66 71 66 75 86 66 50 44 42 39 36 30 27 26 26 19 12 360 358 355 346 341 335 338 341 341 336 326 317 317 324 324 313 314 305 305 301 297 288 289 288 295 301 298 300 302 302 293 283 276 272 271 273 270 269 261 254 247
103 89 68 68 61 56 68 69 70 62 50 46 45 37 33 34 29 27 31 27 20 12 5 360 352 349 347 341 338 338 335 338 330 331 333 324 318 319 320 315 306 304 298 299 296 300 296 293 298 303 302 301 298 299 295 287 283 275 271 263 260 256 250
75 78 83 66 59 56 72 77 80 67 51 49 48 39 32 26 29 31 23 21 21 12 3 359 358 352 350 348 350 347 349 350 340 341 335 325 328 325 318 312 312 312 314 309 306 306 305 302 302 299 301 302 306 301 293 292 288 281 276 273 263 252 251
67 65 54 54 56 70 76 94 96 84 62 55 41 41 32 23 26 26 20 16 21 10 5 0 358 0 359 352 13 2 356 354 358 350 338 339 339 325 327 330 324 321 320 321 322 319 315 312 307 302 300 306 304 300 302 299 292 281 269 266 269 263 251
71 73 78 73 61 72 76 70 66 69 66 57 45 40 35 27 27 26 20 18 14 12 6 5 7 10 4 10 17 11 5 5 2 352 347 346 342 342 334 325 319 323 321 321 319 322 321 320 316 309 307 313 306 305 301 302 296 289 282 272 265 261 259
77 72 70 75 72 70 69 68 70 73 69 61 54 47 38 30 37 32 26 24 20 15 14 15 14 19 16 18 23 16 10 8 357 353 350 349 346 348 342 337 339 328 326 331 328 323 326 323 317 316 314 310 309 304 302 298 295 296 288 278 271 260 256
81 79 75 70 67 76 79 76 73 72 68 60 56 51 38 41 38 39 34 30 25 20 19 18 12 23 21 24 24 19 17 9 359 355 350 348 349 347 343 343 336 332 333 328 329 330 328 322 317 318 315 311 312 311 308 306 302 289 293 295 293 291 276
84 81 78 76 78 73 74 76 74 72 71 69 60 52 47 42 39 38 39 34 28 26 24 22 19 18 17 19 21 22 16 12 7 5 1 352 352 350 346 342 335 334 331 338 338 335 329 327 329 326 329 330 328 323 320 312 314 303 303 303 297 279 273
80 80 81 83 81 79 79 78 79 79 77 68 65 57 53 50 43 38 38 35 33 30 28 26 24 20 15 20 17 17 13 6 6 11 4 0 355 352 352 345 341 336 340 338 333 333 329 328 328 327 329 324 325 319 321 313 310 311 311 315 309 299 304
79 81 82 82 81 84 85 84 83 82 74 69 70 66 61 56 51 43 41 40 37 35 32 28 26 24 21 23 15 19 12 3 6 9 6 358 357 352 351 349 348 344 348 339 336 331 330 331 330 332 327 325 326 319 314 309 306 303 308 316 313 313 312
79 82 83 83 87 91 88 84 81 78 77 70 67 65 62 56 52 48 44 43 38 38 34 31 26 28 25 24 19 17 12 4 2 2 3 359 354 351 351 348 349 348 349 342 336 337 335 337 337 329 326 323 322 320 318 314 310 299 317 308 308 311 306
82 84 85 86 85 82 82 85 81 75 69 69 65 60 58 56 51 51 47 45 43 39 37 32 29 27 26 26 20 16 11 5 4 5 360 1 355 350 349 347 351 351 349 343 339 335 336 340 336 330 328 325 320 320 319 315 303 301 309 309 307 307 305
86 84 81 80 81 77 76 72 70 70 68 62 61 60 56 51 51 48 49 45 41 39 38 35 30 27 26 23 22 14 10 7 6 5 358 359 360 355 352 348 351 355 352 346 341 336 339 340 336 332 329 328 324 323 325 319 308 305 302 307 308 305 311
79 76 77 77 77 77 74 72 72 72 69 59 55 57 55 53 51 51 47 44 41 38 35 35 29 28 23 21 19 15 7 4 3 1 358 359 0 359 354 353 353 354 354 347 342 340 339 338 337 330 330 330 325 323 325 316 308 303 302 311 310 309 306
80 78 77 75 74 76 74 71 67 68 65 65 57 53 52 52 49 48 48 45 40 36 32 29 26 22 20 16 13 12 7 4 1 358 358 359 359 357 357 356 356 354 351 346 346 341 340 340 336 331 329 328 323 321 320 318 311 306 305 302 305 304 306
78 78 79 74 73 71 71 70 68 64 61 58 59 54 50 48 49 46 45 44 40 36 30 25 22 17 14 8 7 4 2 2 1 359 358 358 357 356 358 356 357 355 352 347 345 341 342 341 336 332 329 327 324 321 317 314 310 305 303 301 302 303 304
82 78 75 73 70 71 70 69 62 63 63 60 53 53 52 50 50 50 46 42 40 36 30 24 17 12 9 4 0 360 359 359 357 359 1 357 359 358 355 356 355 355 356 348 345 344 342 340 337 332 330 328 324 321 316 312 307 303 302 300 299 298 300
80 78 78 77 73 69 68 67 68 63 59 62 58 54 56 52 48 52 49 46 41 37 33 24 17 9 4 359 356 356 358 357 357 1 0 2 2 1 356 357 354 358 355 351 348 345 343 339 336 331 328 326 324 321 317 313 306 302 299 298 300 301 299
83 81 77 74 74 73 69 67 67 67 62 61 60 59 55 59 54 52 52 49 43 38 33 26 17 8 2 357 352 353 359 359 360 4 3 4 4 1 360 359 356 358 353 352 348 343 340 338 336 331 326 323 321 319 317 313 311 307 302 300 300 297 298
84 80 79 77 73 70 71 70 69 69 67 62 60 57 54 58 61 57 55 53 45 38 32 26 19 7 359 355 348 350 357 2 3 6 6 4 5 3 1 360 357 356 352 348 345 340 338 336 332 328 324 322 320 317 314 313 310 308 305 303 301 304 301
86 84 81 78 76 74 72 70 71 71 69 67 58 55 55 57 59 62 60 55 48 40 33 24 15 358 352 351 349 351 359 4 6 9 6 4 5 4 1 1 356 354 349 347 341 333 332 330 328 325 322 319 317 315 311 308 308 305 306 307 304 302 301
88 84 82 79 76 75 74 73 71 69 66 63 60 55 58 58 58 59 59 55 49 39 30 25 355 346 344 347 344 350 358 8 10 8 5 4 4 4 1 359 353 353 347 349 342 337 333 328 324 318 315 316 314 311 306 305 303 304 305 304 304 306 303
91 86 81 80 79 76 75 74 72 69 66 62 61 60 57 62 59 56 57 56 47 38 32 12 346 348 342 343 344 351 7 8 8 8 9 6 4 2 360 356 353 350 349 348 343 340 338 332 324 317 311 304 298 298 304 302 301 304 302 299 301 300 299
90 86 82 78 77 78 79 77 74 71 71 68 64 62 61 59 59 57 56 55 47 39 35 10 349 354 347 346 341 333 2 9 11 6 12 6 3 2 358 355 352 349 349 346 342 344 340 334 327 320 315 306 298 286 268 281 301 301 296 295 295 293 294
92 88 82 80 79 80 78 79 78 76 72 70 69 63 59 58 55 51 52 52 49 41 31 11 355 359 350 346 341 331 16 13 10 11 9 6 3 1 0 355 352 349 348 346 346 348 341 336 330 323 316 314 311 314 313 295 276 278 288 289 289 287 287
94 90 86 82 81 79 79 76 78 78 79 75 68 65 61 57 53 50 45 44 51 45 30 10 360 0 353 344 341 327 23 10 11 10 8 7 2 2 1 356 352 349 349 347 351 350 342 338 333 328 329 326 323 320 316 310 301 292 294 298 299 295 291
98 95 90 86 82 79 76 76 74 74 73 67 65 62 57 56 53 48 43 41 46 48 38 15 6 0 358 346 340 317 20 9 11 6 6 4 4 4 3 359 354 351 350 348 357 348 341 339 333 331 329 328 327 324 321 320 319 318 312 306 300 293 289
104 102 99 93 87 81 77 75 76 74 73 72 69 67 62 57 54 49 44 38 40 48 45 27 10 5 357 354 331 352 10 12 7 7 5 2 4 6 5 360 356 356 352 351 355 341 334 331 336 337 333 332 330 327 324 324 319 316 306 299 292 287 284
104 103 100 97 90 84 81 77 73 73 73 70 68 66 66 61 55 51 47 38 32 44 43 29 14 8 0 354 342 4 10 9 7 7 7 5 6 3 6 3 0 360 355 355 346 335 333 335 343 342 339 335 332 328 328 329 327 317 303 296 293 286 279
110 105 101 96 92 89 85 81 76 65 67 68 67 64 68 69 65 58 51 45 24 32 43 41 20 10 4 357 344 350 16 5 5 8 8 7 4 4 4 28 21 1 355 350 338 332 334 339 348 346 344 339 334 334 332 332 327 322 317 310 303 300 298
109 105 101 97 94 92 84 79 78 76 76 75 70 70 62 65 65 60 56 56 38 29 35 46 27 11 7 0 352 352 15 8 6 6 5 4 6 1 3 11 35 6 349 338 332 332 334 341 348 349 349 343 337 335 334 329 326 326 326 326 326 325 319
112 107 104 101 97 91 90 83 74 71 67 66 68 67 67 65 61 58 51 49 51 39 29 34 32 10 9 1 356 340 8 11 4 2 4 4 359 3 3 360 9 6 342 335 331 328 329 338 344 349 352 347 338 330 326 324 327 327 324 327 327 327 322
119 112 107 105 101 94 86 83 79 78 74 65 66 68 69 69 67 66 56 47 45 50 40 20 38 24 5 358 355 349 2 10 359 345 359 1 1 3 1 0 0 355 338 330 326 324 323 332 337 352 355 346 333 321 318 326 331 331 329 330 331 329 329
124 118 115 113 108 96 87 82 79 75 69 73 69 64 57 57 59 57 62 56 47 34 88 81 14 35 9 351 343 343 351 358 348 325 350 4 0 2 358 357 358 343 329 322 318 317 317 328 337 356 346 338 333 333 332 332 330 326 326 333 337 331 327
135 131 124 117 108 105 103 93 90 82 86 89 74 72 66 54 53 49 45 47 39 42 22 89 80 19 8 337 331 323 327 327 328 327 348 2 359 358 359 355 351 332 320 316 313 313 309 329 351 352 340 344 340 336 337 344 335 334 331 339 333 327 324
137 136 134 126 113 107 100 97 85 71 60 51 64 59 56 49 45 42 36 33 39 28 29 16 106 69 351 330 309 302 309 314 311 336 321 358 353 352 353 348 330 311 310 311 314 313 321 359 346 343 343 345 343 346 350 347 345 341 339 336 331 329 329